Location: *
(47.1167°N, 7.5333°E)
Time: 03:20:49
(UTC+00:00)

Daily predictions for brighter satellites

Satellite Brightness Start Highest point End
(mag) Time Altitude Azimuth Time Altitude Azimuth Time Altitude Azimuth
Cosmos 2082 Rocket 4.5 01:29:19 20° NE 01:29:19 20° NE 01:30:59 10° NNE
MSX 4.4 02:33:51 10° NNE 02:38:23 54° NE 02:38:23 54° NE
Lacrosse 5 3.2 02:42:08 37° NE 02:42:08 37° NE 02:46:00 10° E
Cosmos 2360 Rocket 2.9 02:42:15 10° NNW 02:47:47 50° ENE 02:53:17 10° SE
Resurs 1-4 Rocket 4.5 02:46:25 10° NNW 02:47:06 12° NNW 02:47:06 12° NNW
ARIANE 5 R/B 3.6 02:50:14 10° NNE 02:53:20 39° N 02:53:20 39° N
CZ-2C R/B 3.3 02:55:12 10° NNE 02:59:42 41° E 02:59:46 41° E
Cosmos 2333 Rocket 3.6 03:04:00 10° NNW 03:09:20 37° NE 03:14:39 10° ESE
Cosmos 2082 Rocket 3.7 03:11:10 24° NNW 03:11:10 24° NNW 03:14:37 10° N
H-2A R/B 4.4 03:06:50 10° ESE 03:10:08 23° ENE 03:13:24 10° NNE
Spot 4 Rocket 4.2 03:07:37 10° NNE 03:12:07 69° NNE 03:12:07 69° NNE
ADEOS II 4.0 03:09:21 10° N 03:11:05 18° NNW 03:11:05 18° NNW
USA 267 3.4 03:09:58 10° NE 03:16:21 57° NNW 03:17:26 51° WNW
IDEFIX/ARIANE 42P 3.8 03:13:52 10° N 03:16:53 30° NNW 03:16:53 30° NNW
NOSS 3-2 (A) 4.1 03:15:12 10° NW 03:22:40 80° NE 03:31:12 10° SE
BREEZE-M DEB (TANK) 3.4 03:22:53 80° SE 03:22:53 80° SE 03:25:55 10° ENE
Cosmos 1553 Rocket 3.9 03:26:48 63° W 03:27:09 64° WNW 03:33:23 10° N
Cosmos 1417 Rocket 4.4 03:29:15 60° SW 03:30:13 70° W 03:36:34 10° N
Cosmos 2219 Rocket 3.2 03:27:13 10° NNW 03:32:39 45° NE 03:38:04 10° SE
COSMOS 2487 3.9 03:35:20 33° ESE 03:35:23 33° ESE 03:38:30 10° NE
PAYLOAD A 4.0 03:34:20 10° NNE 03:39:38 79° WNW 03:40:52 54° SSW
CENTAUR R/B 3.4 03:31:37 10° NW 03:39:39 74° NE 03:48:32 10° SE
COSMOS 2428 3.8 03:34:48 10° NNW 03:40:17 44° NE 03:45:44 10° SE
Cosmos 1606 3.2 03:42:18 48° SE 03:43:02 59° E 03:46:53 10° NNE
Cosmos 2315 Rocket 4.3 03:38:13 10° S 03:44:21 68° E 03:50:31 10° NNE
PSLV R/B 3.5 03:42:04 10° NNE 03:46:28 83° ESE 03:47:30 52° S
BREEZE-M DEB (TANK) 4.3 03:50:58 19° NE 03:50:58 19° NE 03:51:45 10° NE
BREEZE M DEB (TANK) 2.4 03:51:34 54° NNE 03:51:34 54° NNE 03:55:54 10° E
USA 234 3.8 03:45:43 10° SSE 03:51:15 35° SW 03:51:15 35° SW
Lacrosse 4 Rocket 1.5 03:51:56 64° SW 03:51:56 64° SW 03:55:58 10° SSE
ISS -2.9 03:58:45 43° N 03:58:58 44° NNE 04:02:13 10° E
ATLAS 5 CENTAUR R/B 3.6 03:56:02 10° SSE 03:59:05 22° ESE 04:02:23 10° ENE
Cosmos 1805 Rocket 3.5 03:55:12 10° N 03:59:42 88° E 04:04:09 10° S
Cosmos 1743 Rocket 4.1 03:56:26 10° NNW 03:59:51 42° NW 03:59:51 42° NW
NOSS 3-2 (C) 4.1 03:55:49 10° NW 04:03:21 87° NE 04:11:54 10° SE
Cosmos 2322 3.6 03:57:43 10° NNW 04:03:27 89° NE 04:09:07 10° SSE
Cosmos 2221 3.4 04:04:42 32° NW 04:04:42 32° NW 04:07:49 10° N
Cosmos 1992 Rocket 4.0 03:58:57 10° NNW 04:04:02 53° WSW 04:09:03 10° S
COSMO-SKYMED 1 4.0 04:01:29 10° SE 04:05:31 39° ENE 04:09:35 10° N
SL-27 R/B 4.4 04:08:12 19° NNW 04:08:12 19° NNW 04:09:48 10° N
Cosmos 1933 4.2 04:03:16 10° S 04:07:10 50° E 04:11:06 10° NNE
FENGYUN 3A 3.6 04:04:51 10° NNE 04:10:19 82° WNW 04:15:45 10° SSW
Cosmos 2344 3.5 04:06:15 28° SW 04:10:31 72° NW 04:18:38 10° NE
BREEZE-M DEB (TANK) 3.6 04:08:38 33° WNW 04:10:41 78° NNE 04:24:51 10° ESE
Cosmos 1833 4.2 04:12:28 29° SW 04:15:19 63° WNW 04:20:55 10° NNE
ATLAS 2AS CENTAUR R/B 4.3 04:08:48 10° S 04:15:56 39° ESE 04:23:02 10° NE
S3M 4.4 04:13:57 30° WSW 04:16:11 40° WNW 04:21:59 10° N
CBERS 1 LM4 rocket 4.3 04:13:34 10° NNE 04:18:25 89° W 04:23:08 10° SSW
Landsat 5 3.5 04:18:43 34° SW 04:19:47 42° W 04:23:32 10° NNW
Meteor 1-20 Rocket 4.3 04:14:05 10° N 04:19:48 81° ENE 04:25:35 10° SSE
Sich 1 2.9 04:17:05 10° NNW 04:21:30 73° W 04:25:52 10° S
Cosmos 1666 Rocket 3.7 04:18:47 10° N 04:23:09 73° E 04:27:32 10° SSE
CZ-2C R/B 4.3 04:20:27 10° NNW 04:22:37 20° NW 04:22:37 20° NW
Lacrosse 5 1.9 04:21:22 23° WNW 04:24:25 61° SW 04:29:23 10° SE
SJ-6F 4.4 04:20:44 10° N 04:24:53 67° WNW 04:28:32 13° SSW
ALOS 2.3 04:21:34 10° N 04:26:10 58° WNW 04:30:10 13° SSW
ADEOS 3.8 04:21:11 10° NNE 04:26:26 71° ESE 04:31:39 10° S
Cosmos 1140 Rocket 4.4 04:24:38 10° S 04:29:38 49° ESE 04:34:38 10° NNE
Meteor 1-31 Rocket 3.0 04:25:46 10° NNE 04:29:39 70° ESE 04:33:28 10° S
Cosmos 2184 Rocket 4.3 04:24:56 10° N 04:31:17 74° E 04:37:39 10° SSE
Cosmos 2360 Rocket 2.9 04:26:43 10° NW 04:31:30 29° WSW 04:36:18 10° SSW
Cosmos 1709 Rocket 4.3 04:26:05 10° NNW 04:32:06 45° W 04:38:06 10° SSW
Cosmos 192 4.3 04:28:35 10° NNW 04:33:34 89° WSW 04:38:31 10° SSE
ARIANE 5 R/B 4.3 04:31:09 10° NNW 04:33:39 14° NW 04:33:41 14° NW
Cosmos 2333 4.4 04:28:45 10° NW 04:34:18 49° WSW 04:39:50 10° S
CZ-4B R/B 1.8 04:32:08 10° SSE 04:35:11 59° ENE 04:38:13 10° N
Meteor 1-4 Rocket 4.5 04:37:50 15° NW 04:37:50 15° NW 04:39:17 10° NNW
Cosmos 2237 Rocket 3.3 04:31:51 10° NNW 04:37:20 47° NE 04:42:46 10° SE
USA 276 2.1 04:36:12 32° WSW 04:37:31 79° SSE 04:40:44 10° ENE
CZ-2C R/B 3.3 04:33:49 10° N 04:37:44 26° WNW 04:39:09 22° W
Cosmos 909 Rocket 4.1 04:31:32 10° SW 04:38:13 89° NW 04:44:32 10° NE
USA 238 DEB 4.1 04:36:34 10° NW 04:43:30 49° WSW 04:50:43 10° S
USA 238 4.1 04:36:41 10° NW 04:43:37 49° WSW 04:50:48 10° S
H-2A R/B 2.4 04:41:56 10° SSW 04:45:55 39° W 04:49:50 10° NNW
SeaSat 1 2.4 04:42:45 10° SSE 04:47:38 63° WSW 04:52:33 10° NW
NOSS 0 Rocket 4.0 04:45:46 10° NNW 04:51:59 86° ENE 04:58:11 10° SSE
Cosmos 1484 Rocket 3.5 04:48:47 10° N 04:52:05 31° WNW 04:54:50 13° SW
ATLAS 3B R/B 3.6 04:45:45 10° NW 04:52:31 52° NE 04:59:32 10° ESE
Cosmos 1437 Rocket 2.8 04:49:03 10° S 04:53:08 90° E 04:57:11 10° NNE
SKYMED 2 3.5 04:49:11 10° S 04:53:30 68° W 04:57:51 10° NNW
Cosmos 2333 Rocket 2.6 04:48:17 10° NW 04:53:41 43° WSW 04:59:04 10° S
Cosmos 1151 Rocket 2.9 04:50:20 10° SSW 04:54:39 77° W 04:58:58 10° N
CZ-4C R/B 2.1 04:50:09 10° SW 04:55:04 88° SE 05:01:06 10° NE
Cosmos 1633 Rocket 3.0 04:51:46 10° NNW 04:56:08 62° W 05:00:26 10° S
Cosmos 1782 2.7 04:52:38 10° S 04:56:35 86° W 05:00:34 10° N
Cosmos 2227 Rocket 4.3 04:52:09 10° SSE 04:57:02 31° ESE 05:01:56 10° NE
SL-16 R/B 4.2 04:53:42 10° N 04:58:38 29° NE 05:03:31 10° ESE
USA 267 4.2 04:52:47 10° ENE 04:58:41 38° N 05:04:35 10° WNW
MOS 1 Rocket 3.2 04:56:47 10° S 05:01:02 54° W 05:05:34 10° NNW
Cosmos 1242 Rocket 4.3 04:58:30 10° SSE 05:01:39 35° E 05:04:52 10° NNE
CZ-4B R/B 3.9 05:00:26 10° N 05:04:01 45° WNW 05:07:29 10° SW
Cosmos 2251 Rocket 4.3 04:59:28 11° WSW 05:04:06 33° WNW 05:08:59 10° N
Meteor 1-26 Rocket 4.3 05:01:04 10° SSW 05:06:46 73° WNW 05:12:41 10° N
SAR-Lupe-4 4.5 05:03:41 10° SSE 05:07:10 53° ENE 05:10:40 10° N
Cosmos 1666 4.4 05:04:09 10° N 05:07:45 38° ENE 05:11:20 10° SE
H-2A R/B 4.4 04:56:33 11° WSW 05:08:13 25° SSW 05:12:39 10° SSE
COSMOS 2487 4.0 05:08:44 13° W 05:10:24 18° WNW 05:12:50 10° NNW
Meteor PRIRODA 3.6 05:07:51 10° NNE 05:11:37 86° WNW 05:15:20 10° SSW
Cosmos 1689 Rocket 2.8 05:09:19 10° SSE 05:12:04 55° ENE 05:14:53 10° N
Cosmos 2297 Rocket 3.3 05:07:00 10° S 05:12:25 50° ESE 05:17:52 10° NE
Nadezhda 1 Rocket 4.0 05:09:46 10° S 05:15:54 85° W 05:22:11 10° N
Cosmos 2219 Rocket 2.9 05:11:28 10° NW 05:16:26 33° WSW 05:21:25 10° SSW
Cosmos 1954 Rocket 4.3 05:16:17 10° SSW 05:21:32 75° ESE 05:26:48 10° NNE
Cosmos 1980 3.7 05:16:07 10° NNW 05:21:49 82° WSW 05:27:29 10° SSE
COSMOS 2428 3.4 05:19:21 10° NW 05:24:26 33° WSW 05:29:29 10° SSW
Cosmos 1500 3.2 05:23:22 10° NNW 05:27:07 59° W 05:30:52 10° S
SAR-Lupe-1 4.0 05:23:39 10° SSE 05:27:14 85° WSW 05:30:51 10° NNW
Cosmos 407 Rocket 3.7 05:23:28 10° SW 05:28:29 48° WNW 05:33:28 10° NNE
CENTAUR R/B 3.8 05:22:48 10° NW 05:30:08 36° WSW 05:37:56 10° S
CZ-3 R/B 4.0 05:21:14 10° SW 05:30:17 19° SSW 05:34:53 10° SSE
Cosmos 1515 Rocket 3.5 05:26:06 10° SSW 05:30:25 68° W 05:34:48 10° N
Cosmos 1328 Rocket 4.0 05:26:44 10° SW 05:30:45 39° WNW 05:34:50 10° N
